Tracking 35331 objects as of 14-Sep-2026
HD Live streaming from Space Station
objects crossing your sky now

COSMOS 1186 DEB


COSMOS 1186 DEB is no longer on orbit


NORAD ID: 12414
Int'l Code: 1980-047K
Launch date: June 6, 1980
Source: Commonwealth of Independent States (former USSR) (CIS)
Launch site: PLESETSK MISSILE AND SPACE COMPLEX (PKMTR)
Decay date: 1981-05-03

Note: This is SATELLITE DEBRIS
Your satellite tracking list
Your tracking list is empty




NASA's NSSDC Master Catalog

Two Line Element Set (TLE):
1 12414U 80047  K 81116.93749675  .02197891 +00000-0 +26969-1 0  9998
2 12414 073.9881 096.1176 0025706 262.2474 097.5825 15.59777306049657
Source of the keplerian elements: AFSPC